GEFSSGP_500_meanwind_312.txt.gz
Wind_Speed
12 12 12 12 13 12 10 11 11 11 10 9 9 8 8 7 7 7 7 6 6 6 6 7 7 7 7 8 7 7 7 7 7 7 8 7 7 7 6 6 6 6 6 5 5 5 4 3 4
13 13 12 12 13 11 10 10 10 10 9 9 8 8 8 8 8 7 7 7 6 7 7 6 7 7 8 8 7 7 7 6 7 6 6 6 6 6 6 6 5 5 5 5 5 5 4 3 3
13 13 13 13 12 11 10 10 10 10 9 9 9 8 8 8 8 8 7 7 7 6 6 6 6 7 8 8 7 7 6 6 6 5 6 5 5 5 5 6 5 5 5 5 5 4 3 3 3
14 14 14 13 12 11 11 10 10 10 10 9 8 8 8 8 8 8 7 7 7 7 7 7 7 7 7 7 6 6 6 5 5 5 5 6 5 4 4 4 4 5 5 5 4 4 3 3 4
14 15 15 12 12 11 11 11 10 10 10 9 9 8 8 8 8 8 8 7 7 8 7 7 7 7 7 7 6 6 5 5 5 5 5 5 4 4 4 3 3 3 5 5 5 4 4 4 4
15 16 15 13 12 12 11 11 11 10 10 10 9 8 8 8 9 9 8 8 8 9 8 8 8 7 6 7 6 6 6 5 5 4 4 4 4 3 3 3 3 3 4 5 5 4 4 4 4
15 15 14 13 12 11 11 10 11 11 10 10 9 9 9 9 9 9 9 9 9 8 8 8 8 8 7 7 7 7 7 6 5 5 4 4 4 3 3 3 3 3 3 4 5 4 4 4 4
14 15 13 12 12 11 10 10 10 10 10 10 10 9 10 10 10 10 10 9 9 8 8 8 8 8 7 7 8 8 7 7 6 5 5 4 4 3 3 2 2 2 3 4 4 4 5 5 4
13 14 11 11 11 11 10 10 10 10 10 10 10 9 10 10 10 10 9 9 8 8 8 7 6 7 7 7 7 7 7 6 6 5 5 4 4 4 3 2 2 2 2 2 3 3 4 3 3
12 12 11 11 11 11 11 11 11 10 10 10 10 10 9 9 10 10 9 8 8 8 7 7 6 6 7 7 7 7 6 6 5 5 5 4 4 3 3 3 2 2 2 1 2 2 2 2 3
11 12 11 11 11 11 11 11 11 11 10 10 10 10 9 9 10 10 9 9 8 8 7 6 6 6 6 6 6 6 6 6 5 5 5 4 3 3 3 3 2 2 2 2 2 2 2 2 2
11 11 11 11 11 11 11 11 11 11 10 11 11 10 10 10 10 9 9 8 8 8 8 7 8 7 7 6 6 5 5 5 5 4 4 3 2 2 1 1 1 1 2 2 1 2 2 2 3
10 10 10 10 10 11 12 12 11 11 11 11 11 10 10 10 10 9 9 9 9 9 9 9 9 9 8 6 5 5 4 4 4 4 3 2 2 1 0 0 1 2 2 2 1 2 2 2 3
9 9 10 10 10 10 11 12 11 11 11 10 10 10 10 10 10 9 9 8 8 9 9 9 9 8 7 7 6 5 4 4 4 3 3 2 1 1 1 1 1 2 2 2 2 3 3 3 4
8 8 9 9 9 10 10 11 11 10 10 9 9 9 9 10 10 9 9 8 8 8 9 9 9 9 8 7 7 7 6 5 4 3 2 2 1 1 1 0 0 1 2 2 2 3 4 5 5
7 8 8 7 8 8 9 10 10 9 9 8 8 8 8 9 9 9 9 8 8 8 9 9 9 9 9 8 8 7 7 6 6 5 4 3 2 1 1 0 0 1 2 3 3 4 5 6 6
6 6 5 5 6 7 7 8 8 8 8 8 8 7 7 8 8 8 9 8 8 8 9 9 9 9 8 8 8 7 7 7 7 6 5 4 4 2 2 1 1 2 3 4 4 5 6 6 6
4 4 3 4 5 5 6 6 7 7 7 7 7 6 6 6 7 7 8 7 7 8 8 8 9 9 9 8 8 8 8 7 6 6 6 5 5 3 3 3 2 2 3 4 4 5 6 6 6
4 3 2 3 3 4 5 5 6 6 7 7 7 6 5 6 6 7 7 7 7 7 8 8 8 8 8 8 8 8 7 7 7 6 6 6 5 4 4 4 3 3 3 4 5 6 6 6 6
3 2 1 1 2 3 4 5 5 6 6 6 6 6 5 5 6 6 7 8 7 7 7 7 7 8 8 8 8 8 7 7 7 7 7 6 6 6 5 6 4 4 4 5 5 6 6 5 6
3 2 2 1 1 3 4 5 5 5 5 5 6 6 4 4 4 6 6 7 7 6 6 7 7 7 7 7 7 7 7 7 7 7 7 7 7 6 6 6 5 5 5 6 6 6 5 6 6
4 4 4 3 1 3 4 4 5 5 5 5 5 4 4 3 3 4 5 6 6 6 5 5 6 6 7 7 7 7 7 8 8 8 8 8 7 7 8 8 7 6 6 6 6 6 7 7 8
6 5 5 4 3 3 4 3 4 5 5 5 5 4 4 3 3 4 4 5 6 6 6 5 5 6 7 7 7 7 8 8 8 9 9 9 8 8 9 9 8 7 6 6 7 7 7 8 8
8 7 7 7 5 5 5 5 4 5 5 5 5 5 4 4 4 3 4 4 5 6 6 6 5 6 6 7 7 7 8 9 9 9 10 10 10 10 10 10 9 9 8 8 8 7 8 8 9
10 8 6 7 7 8 7 7 5 5 4 4 5 5 5 5 5 4 3 3 4 5 6 6 6 6 6 6 7 8 8 9 9 10 10 10 10 10 11 11 10 10 9 8 8 8 9 9 10
11 10 9 9 9 9 9 8 6 6 5 5 5 5 5 5 5 5 5 4 5 6 6 6 7 7 7 7 7 8 9 9 10 10 10 11 11 11 11 11 10 10 10 10 10 10 11 12 13
13 12 12 11 11 10 9 9 7 6 6 7 7 7 6 6 6 6 6 6 6 7 7 8 8 8 8 9 9 9 10 10 10 10 11 12 12 12 12 12 12 11 11 11 11 12 13 13 14
16 14 13 12 12 12 10 10 8 8 8 8 8 9 9 9 8 8 8 8 8 9 10 10 9 10 10 10 10 11 11 11 12 12 12 12 13 13 13 13 13 13 13 13 13 14 14 15 15
18 17 16 16 15 14 13 12 12 11 10 10 10 10 10 10 10 10 10 10 10 11 11 11 11 11 11 12 12 12 12 13 13 13 13 13 14 14 14 15 15 15 15 15 15 16 16 17 17
21 20 18 18 18 17 16 14 14 13 12 12 12 13 13 12 12 11 12 12 13 13 13 13 13 14 14 14 14 14 14 15 15 15 15 15 15 15 16 16 17 17 17 17 17 17 17 18 18

GEFSSGP_500_meanwind_318.txt.gz
Wind_Speed
14 14 13 11 13 12 7 5 5 5 5 4 4 4 4 4 4 4 4 3 3 4 3 4 4 4 4 4 5 5 5 5 5 5 5 4 4 4 4 3 4 4 4 4 3 2 2 1 1
14 12 11 13 12 8 6 6 5 5 4 4 5 5 4 4 4 4 4 3 3 3 3 3 3 4 4 4 4 5 5 4 4 4 4 4 4 3 2 3 3 3 3 3 2 2 1 0 1
14 13 13 14 10 7 6 6 6 5 5 5 5 5 5 5 4 4 4 4 3 3 3 3 3 4 4 4 4 4 4 4 4 4 4 3 3 2 2 2 2 2 2 1 1 1 1 1 1
14 15 15 12 9 7 7 6 6 6 5 5 6 6 5 5 4 4 4 4 4 4 4 4 3 3 3 4 4 4 4 4 4 4 4 3 2 2 2 1 0 0 1 1 1 1 1 2 1
15 16 14 10 8 7 8 7 7 7 6 6 6 6 6 5 5 4 4 5 4 4 4 3 3 3 3 3 4 4 4 4 4 4 4 3 2 2 0 0 1 1 2 2 2 2 2 2 2
19 17 13 9 8 8 8 8 7 7 7 7 7 6 6 6 5 5 4 4 5 5 4 4 4 4 3 3 3 4 4 3 3 3 2 2 2 2 1 0 1 1 2 2 3 2 2 2 2
18 15 11 8 7 8 9 8 8 7 7 7 7 7 7 6 6 5 5 5 5 5 5 4 5 5 4 3 4 4 3 3 3 2 2 2 2 2 1 0 0 1 2 2 2 2 2 2 2
16 13 10 8 7 7 8 9 9 9 8 8 7 7 7 7 7 7 7 6 6 6 5 5 5 5 5 5 5 4 3 3 3 2 1 2 2 2 1 1 1 1 1 2 2 1 2 2 1
13 11 7 7 7 7 9 9 9 10 9 9 8 8 7 7 7 7 7 7 7 6 6 5 6 5 5 5 5 5 4 3 2 2 1 1 1 2 2 1 1 1 1 1 1 1 1 1 1
10 9 8 8 8 8 8 9 10 9 9 8 8 8 8 8 7 7 7 7 7 7 6 6 6 5 5 5 5 4 3 3 2 2 2 1 1 1 1 1 1 2 2 2 1 1 1 1 2
8 8 8 8 8 8 8 8 9 9 9 8 8 8 8 8 7 7 7 7 7 7 6 6 6 5 5 5 5 4 4 3 3 3 3 2 2 2 2 2 2 2 2 2 1 1 2 2 2
7 7 7 8 8 8 8 9 9 9 9 9 8 9 9 9 8 7 7 7 7 6 6 6 6 5 5 5 5 5 5 5 4 3 4 3 2 3 3 3 2 3 3 3 2 2 3 3 3
7 6 8 8 9 10 9 8 9 10 9 9 9 9 9 10 9 9 8 8 8 7 7 7 7 7 6 6 6 6 5 5 5 4 4 4 3 4 4 3 2 3 3 3 3 3 3 4 4
7 7 8 9 10 10 10 11 11 10 9 9 9 9 9 10 11 11 9 8 8 8 8 7 7 7 7 7 6 6 6 6 6 5 5 5 4 4 4 4 3 3 3 3 4 4 4 5 5
6 6 7 9 10 10 10 11 11 11 9 9 9 10 10 11 11 11 10 9 8 8 8 8 8 8 7 7 7 6 7 7 6 6 5 5 5 4 5 5 4 4 5 4 5 6 6 6 6
9 8 7 7 9 10 11 11 12 11 10 9 9 10 11 11 11 11 10 9 8 8 8 8 8 8 7 7 6 6 7 7 7 6 6 6 6 5 5 5 5 5 6 6 6 7 7 8 8
6 5 6 7 7 7 8 10 12 11 10 9 9 9 10 11 11 11 10 9 8 7 7 7 7 7 7 6 6 6 7 7 7 7 6 7 7 6 6 6 6 7 7 7 8 8 9 10 10
4 3 4 5 6 6 7 9 11 11 10 10 9 9 9 10 10 10 10 9 8 7 7 6 7 7 7 6 6 6 7 7 8 7 7 8 8 8 7 7 7 8 8 8 8 9 10 11 11
2 2 2 2 4 5 6 8 10 11 11 11 10 9 9 9 9 9 10 9 8 7 6 6 6 6 7 7 7 7 7 8 8 9 8 8 9 8 9 8 9 8 8 8 9 9 10 11 11
1 1 2 3 3 3 5 7 9 10 11 11 10 9 8 8 8 8 9 9 8 7 7 7 7 7 7 7 7 7 8 9 9 10 9 9 9 9 9 9 9 9 9 9 10 10 10 10 10
1 1 2 3 4 4 6 8 8 10 10 10 9 9 8 8 7 7 8 9 9 7 7 7 7 8 8 8 8 8 8 9 10 11 11 11 10 10 10 10 10 10 10 10 10 10 10 10 10
3 2 2 2 3 5 5 8 9 10 10 10 8 8 8 8 8 7 7 8 8 8 6 6 7 8 8 8 8 8 9 10 11 12 12 11 11 11 10 11 11 10 11 10 10 10 10 11 11
4 3 3 2 3 4 5 8 10 10 11 10 8 8 7 7 7 7 7 7 8 8 7 7 8 8 9 9 9 9 10 11 12 12 13 12 12 12 11 12 12 11 11 11 11 11 12 12 12
5 4 2 4 4 6 5 7 9 10 12 12 9 8 7 7 7 6 6 7 8 8 8 8 9 9 9 10 10 11 11 12 13 13 13 12 12 12 12 12 12 11 12 12 12 12 13 12 13
6 5 5 6 5 7 7 7 8 11 12 12 11 9 7 7 7 7 7 8 8 9 8 9 10 10 10 10 11 11 12 12 13 13 13 13 12 13 13 13 12 12 13 12 13 13 14 14 14
9 8 6 7 7 8 9 8 9 11 12 13 11 9 8 8 9 9 9 9 9 9 9 9 10 10 10 10 11 12 13 13 13 14 15 14 14 14 14 14 14 14 14 14 14 14 15 16 15
11 11 9 9 9 9 10 8 11 12 12 12 11 11 10 10 10 10 9 10 10 10 10 10 10 10 11 12 13 13 13 13 14 15 15 16 15 15 15 15 15 14 15 15 16 16 16 16 16
13 11 10 10 11 11 10 8 10 12 13 14 13 13 12 12 12 11 10 10 11 11 12 11 11 11 12 13 14 14 14 14 15 16 17 17 16 16 16 16 16 16 16 17 17 17 17 18 18
13 12 12 13 13 11 12 11 12 14 15 15 15 15 14 14 13 12 11 12 13 13 14 14 13 13 14 14 15 15 15 16 17 17 18 18 18 18 18 18 18 18 18 18 18 18 19 19 20
16 16 16 16 17 15 15 14 15 13 14 17 17 16 15 15 15 15 15 14 15 15 15 16 15 16 16 17 17 17 17 17 17 18 19 19 19 19 19 20 20 20 20 20 20 21 21 22 22

GEFSSGP_500_meanwind_324.txt.gz
Wind_Speed
15 15 15 14 14 13 13 13 13 13 12 11 11 10 8 8 9 9 8 7 7 7 7 7 7 6 6 6 5 5 5 4 3 3 3 3 3 4 4 4 4 4 3 3 3 3 3 2 2
14 15 14 14 15 14 15 14 13 13 12 12 11 10 8 8 9 9 8 8 8 8 7 7 6 6 5 5 5 4 4 4 4 4 4 4 3 3 3 3 3 3 3 2 3 2 2 2 2
15 16 15 15 15 15 15 14 14 13 13 12 11 10 9 10 9 8 8 8 8 8 7 7 6 6 5 5 4 4 4 4 4 4 4 4 4 3 3 3 3 3 2 2 2 2 2 1 1
15 16 16 16 15 16 15 15 15 14 13 13 12 11 10 10 9 7 7 7 8 7 7 6 6 6 5 5 5 4 4 4 4 4 3 4 4 4 4 4 3 3 1 1 1 2 2 2 1
15 15 16 16 16 16 15 16 15 14 13 13 13 11 10 10 10 9 8 7 8 7 7 6 6 6 6 6 5 5 5 4 4 4 3 4 4 4 4 3 3 3 2 1 1 1 1 1 1
16 15 15 15 16 15 15 15 15 14 14 14 13 12 11 11 11 10 9 9 8 8 8 7 7 7 6 6 5 5 5 4 4 4 4 4 3 3 3 3 3 3 2 2 1 1 1 2 1
15 15 15 15 16 15 15 16 15 14 14 14 13 12 12 12 12 12 11 10 9 9 8 8 7 7 7 6 5 5 5 5 5 4 4 4 3 3 3 2 3 2 2 2 1 0 1 1 2
15 14 14 15 15 15 15 15 14 14 13 13 14 12 11 11 12 12 11 10 9 8 8 8 7 7 7 6 6 6 6 6 5 5 4 4 4 4 3 3 2 1 2 2 2 1 1 1 1
14 14 14 14 14 14 14 14 14 14 13 14 14 13 12 11 12 12 12 11 10 9 8 8 7 7 6 6 6 6 7 6 5 5 4 4 4 3 3 3 2 2 2 1 2 1 1 1 1
13 14 14 15 15 14 14 14 15 14 14 13 13 13 12 12 12 12 12 11 10 10 9 8 8 8 7 7 7 7 7 6 5 5 5 4 3 3 3 3 3 2 2 1 1 1 2 1 2
13 14 14 15 14 14 15 16 15 14 13 13 13 13 12 12 13 12 11 11 10 10 9 9 9 8 8 8 7 7 7 7 7 6 5 4 4 4 3 3 3 2 2 1 1 1 2 2 2
14 14 13 14 14 14 15 16 15 15 14 13 13 13 13 13 12 11 11 11 10 10 10 10 10 9 9 8 7 7 7 7 7 6 5 5 4 4 3 3 3 3 2 2 2 2 3 3 3
12 12 13 14 14 13 15 16 15 14 14 14 13 13 13 13 13 12 11 10 9 9 10 10 10 10 10 9 8 7 7 8 7 6 6 6 5 5 4 3 2 2 2 2 2 4 4 4 3
10 10 11 12 13 13 14 15 15 14 15 14 14 13 13 13 13 12 11 10 9 9 9 10 9 9 9 9 9 8 8 8 8 7 6 5 5 5 5 4 3 3 3 3 4 5 5 5 5
9 10 13 12 12 13 13 15 14 14 14 13 13 13 13 13 13 12 12 11 10 9 8 9 9 9 9 9 8 8 7 7 7 7 6 5 5 5 5 5 4 4 4 4 5 5 5 6 7
8 8 10 11 12 12 12 14 14 13 13 12 12 12 12 12 12 12 12 11 10 9 8 9 9 9 9 9 8 8 7 8 7 7 7 6 5 6 5 6 5 5 5 5 5 5 6 6 7
6 7 7 9 10 10 10 12 12 12 13 12 12 12 12 12 12 11 11 10 10 9 9 8 9 9 9 8 8 8 8 8 8 7 7 6 6 7 7 6 6 6 5 5 5 6 6 7 8
7 7 6 6 8 9 9 10 10 11 12 11 11 11 11 11 11 11 10 10 10 9 8 8 9 9 9 8 8 8 8 9 9 8 8 8 7 6 6 6 6 6 6 6 6 6 7 8 8
6 5 4 5 6 7 8 8 10 10 11 10 10 10 11 11 11 10 10 10 9 9 9 8 9 9 9 8 8 8 8 8 9 9 9 9 8 7 7 6 7 7 7 7 7 7 7 8 8
3 2 3 4 5 6 7 9 9 9 10 9 10 10 11 11 10 10 9 9 9 9 9 9 9 9 9 8 8 7 8 9 9 10 10 9 9 8 8 8 9 8 8 8 7 7 8 8 9
2 0 2 4 4 5 5 6 8 8 8 8 9 9 10 10 10 10 9 9 9 8 8 8 8 8 8 8 8 8 8 9 10 10 10 10 9 8 8 8 8 9 9 8 8 8 9 9 10
2 2 2 1 2 2 5 6 7 8 7 8 8 8 8 8 9 8 8 8 8 8 7 7 7 7 7 8 8 8 9 9 10 10 10 9 9 9 9 8 8 9 9 9 9 10 10 10 10
3 3 4 3 3 3 5 7 8 9 6 7 8 7 7 8 8 8 8 8 7 7 7 7 7 6 7 7 8 8 9 9 10 10 10 9 9 9 8 9 8 9 9 9 10 10 10 11 11
6 5 5 5 5 4 5 7 7 7 7 6 6 6 7 8 8 7 7 7 7 7 7 7 7 6 7 7 8 8 9 9 9 9 10 10 10 9 8 9 9 9 10 10 11 12 12 12 12
8 7 8 7 6 5 6 7 6 6 6 6 6 5 6 7 8 8 7 7 7 8 8 7 7 7 7 7 8 9 9 9 9 10 10 10 10 10 9 9 10 11 11 11 12 13 13 14 14
10 10 10 8 7 7 8 9 7 5 5 5 6 6 6 6 7 7 8 8 8 8 8 8 9 8 8 8 8 8 9 10 10 10 10 10 10 11 11 11 11 12 12 12 13 13 14 14 15
11 11 12 12 10 10 10 11 11 8 6 7 7 7 7 7 8 8 8 9 9 9 9 10 11 11 10 9 9 9 9 10 11 11 12 12 11 12 12 12 13 13 14 14 14 15 16 16 16
14 13 13 13 13 13 13 13 11 9 8 9 9 9 9 10 10 10 10 10 10 10 10 11 12 12 12 10 9 10 10 12 12 12 13 13 13 13 13 14 15 15 15 16 16 17 17 18 18
16 14 14 16 17 15 15 14 11 11 11 11 11 11 11 12 12 12 12 12 12 12 12 12 13 13 13 12 12 12 13 13 14 14 14 15 15 15 15 16 16 17 17 17 18 19 19 20 20
19 17 16 18 18 17 17 16 15 14 12 12 12 12 12 13 13 13 13 13 13 13 13 13 14 15 15 14 13 14 15 15 15 16 16 16 15 16 16 17 17 18 19 19 20 21 21 21 21

GEFSSGP_500_meanwind_330.txt.gz
Wind_Speed
14 14 13 13 15 15 14 14 14 14 13 12 11 10 10 10 10 10 8 8 8 8 8 8 8 9 9 9 8 8 7 7 7 7 7 7 6 7 6 6 5 5 4 4 4 4 3 3 2
14 14 14 15 15 14 14 14 15 15 14 12 11 10 10 10 10 9 8 8 8 8 8 9 9 9 9 9 8 8 8 8 9 8 7 6 6 6 6 5 5 5 4 4 3 4 3 2 2
14 15 15 15 15 15 15 15 15 15 14 13 12 11 10 10 9 9 9 8 8 8 8 9 9 10 9 9 9 9 9 9 9 9 8 7 6 6 5 4 4 4 4 3 3 3 2 1 1
15 15 15 15 15 15 15 16 16 15 15 14 13 12 11 10 9 9 8 8 8 8 9 9 10 10 9 9 9 8 8 8 8 8 8 8 7 5 5 5 4 4 3 3 2 2 1 1 0
14 14 15 15 15 15 15 16 16 15 14 14 13 13 12 11 10 10 9 9 9 9 9 10 10 10 10 9 9 8 8 8 8 8 8 7 7 5 5 5 5 4 3 2 2 2 1 1 1
14 14 15 15 14 15 15 15 15 15 14 13 13 13 12 11 11 11 10 9 9 9 10 10 10 10 10 9 9 9 8 8 8 7 7 7 6 5 5 5 5 5 4 3 2 2 1 1 1
13 14 14 15 15 15 15 15 14 14 14 13 13 13 12 11 11 11 11 10 10 10 10 10 9 9 9 9 9 9 8 8 8 7 6 7 6 5 4 4 4 4 4 3 2 2 1 1 1
13 13 14 15 15 15 15 15 14 14 15 14 13 13 12 12 11 10 11 11 11 10 10 10 10 9 9 9 9 9 9 8 7 6 6 6 6 5 4 4 3 3 3 3 2 1 1 2 2
13 13 13 14 15 15 15 14 14 14 14 14 13 12 12 12 11 10 10 11 11 11 11 10 10 9 9 9 9 9 8 8 7 7 6 6 5 5 4 3 2 2 1 1 1 1 1 2 2
13 14 14 13 14 15 14 14 14 14 14 13 13 12 12 12 11 11 11 10 10 11 11 11 10 10 9 9 9 9 8 7 7 6 6 5 4 4 4 4 2 1 1 1 1 2 2 2 2
12 13 13 13 13 13 13 13 14 14 13 12 12 12 12 12 12 11 11 10 11 11 10 10 10 9 9 9 9 8 8 7 6 6 5 4 4 4 4 3 2 1 1 2 2 3 2 3 3
11 11 12 13 13 13 12 13 13 13 13 13 13 13 12 12 12 11 10 10 10 10 10 9 9 9 9 8 8 7 7 7 6 5 5 4 3 3 3 3 2 1 1 2 3 4 3 3 4
10 10 11 12 13 13 13 13 13 12 12 12 13 13 12 12 11 11 10 10 9 9 9 9 9 9 8 7 7 6 6 6 5 5 4 4 4 3 3 4 3 2 2 3 4 4 4 5 5
9 10 10 11 12 12 13 12 12 11 11 12 12 13 13 12 12 11 10 9 9 9 9 9 8 8 8 8 8 7 7 6 6 5 4 4 4 3 3 4 3 3 3 3 4 4 5 6 6
8 9 9 10 11 12 12 12 11 10 10 10 11 12 13 12 11 11 10 9 9 9 8 8 8 8 7 7 7 7 6 6 6 5 5 5 4 3 3 3 4 3 3 3 4 4 5 6 6
6 8 9 9 10 11 11 11 10 9 9 10 11 12 12 12 11 11 10 9 8 8 8 8 7 7 6 6 6 6 6 6 5 5 5 5 5 4 3 3 3 3 3 4 5 5 5 6 6
4 6 8 7 7 9 10 10 10 9 9 9 10 10 11 11 11 10 9 9 8 7 7 7 6 6 6 7 6 6 6 7 6 6 5 6 6 5 4 3 3 3 4 5 5 6 6 6 7
2 3 5 5 6 7 8 8 8 8 8 8 8 9 10 10 9 9 9 8 7 7 7 6 6 6 6 6 6 6 6 6 6 7 6 6 6 5 4 3 3 4 5 6 6 6 7 7 8
2 2 2 3 4 5 6 6 6 7 7 6 7 7 8 9 8 8 7 7 7 7 7 7 6 5 5 5 6 6 6 7 6 7 7 6 6 5 4 4 5 6 6 6 7 8 9 8 8
4 3 1 1 1 3 4 4 5 6 6 6 5 6 6 7 7 7 7 7 7 6 6 6 6 5 5 5 5 6 6 6 7 7 7 7 6 6 5 5 6 6 6 7 8 8 9 9 9
5 4 3 2 2 2 2 3 4 4 5 5 4 4 5 5 5 5 5 6 7 6 6 6 6 5 6 6 5 6 6 6 7 8 8 7 7 6 6 6 6 7 7 8 9 9 9 9 9
6 5 5 4 4 4 4 4 3 4 4 4 4 4 3 4 4 5 5 5 6 6 6 7 7 6 6 6 6 6 6 7 8 8 8 8 7 7 6 6 7 8 8 9 9 10 10 10 10
7 7 6 5 5 6 6 5 5 5 5 5 5 4 3 3 4 5 4 4 5 5 6 7 7 7 7 7 7 7 7 7 8 9 9 8 8 7 7 7 8 9 9 10 10 11 11 12 12
9 9 8 7 8 8 8 8 7 7 8 7 6 5 4 4 4 4 4 4 5 5 6 7 7 7 7 8 9 9 8 8 8 9 9 9 10 9 9 9 9 10 10 11 12 13 14 14 15
12 12 12 11 11 10 10 10 9 9 9 9 8 6 6 5 5 5 4 5 5 6 7 7 8 8 8 9 9 10 9 9 9 9 10 10 11 10 10 11 11 12 12 13 14 15 16 16 16
15 15 15 14 13 13 12 12 11 12 12 11 10 9 9 8 8 7 6 6 6 7 7 8 9 9 9 9 10 10 10 10 10 10 11 11 12 12 12 13 14 14 15 16 16 17 18 18 18
17 17 17 17 16 15 14 14 13 13 13 13 12 11 11 11 10 9 8 7 7 8 8 9 10 10 10 10 11 10 10 11 12 12 13 13 13 13 14 15 16 17 18 18 18 19 19 19 19
20 18 18 18 18 17 17 16 16 15 15 14 14 13 13 13 12 12 9 9 9 10 10 11 11 11 12 12 11 11 12 12 13 14 15 14 16 16 15 16 17 18 19 20 20 20 20 21 21
21 21 21 21 21 21 20 18 17 16 16 15 14 14 14 14 14 13 12 11 11 11 11 12 13 13 13 13 13 13 14 14 14 15 15 17 17 17 18 18 19 19 20 21 21 22 22 22 22
22 22 22 22 22 22 21 19 18 18 17 16 16 16 16 15 15 14 14 13 13 13 12 14 15 15 15 15 15 15 15 16 17 18 18 18 18 19 19 19 20 21 22 22 22 23 23 23 24

GEFSSGP_500_meanwind_336.txt.gz
Wind_Speed
16 15 14 14 15 14 12 12 11 10 10 10 10 10 9 9 9 9 9 9 9 9 9 9 10 10 10 10 10 9 9 9 9 9 9 9 9 9 8 7 6 6 5 5 5 4 3 2 2
15 15 15 15 15 12 11 11 11 10 10 10 10 10 9 10 9 9 9 9 9 9 9 9 10 10 10 10 9 9 8 8 9 9 9 9 8 8 8 7 6 5 5 5 5 4 3 3 2
15 15 15 16 14 12 11 11 11 11 11 11 10 10 9 10 9 9 9 9 9 9 9 10 10 10 9 10 9 9 9 9 9 9 9 8 8 7 7 6 6 6 5 5 5 4 3 3 2
15 15 15 15 13 12 12 12 12 12 12 11 11 10 10 9 9 9 8 9 9 9 9 10 10 10 9 9 9 9 9 9 9 9 8 8 7 6 6 6 7 6 5 5 4 3 2 2 1
15 16 15 14 13 12 13 12 12 12 12 11 11 11 10 10 9 9 9 9 9 9 9 10 10 9 9 9 9 9 9 9 8 8 8 7 7 7 6 6 6 5 5 4 4 3 2 2 1
15 15 14 12 12 13 13 13 13 13 13 12 11 11 11 10 10 9 10 10 10 9 10 10 9 9 9 9 8 8 9 9 8 8 8 7 7 7 6 5 5 4 3 3 3 2 2 1 1
14 14 13 12 12 12 12 13 13 13 13 12 11 11 10 10 10 10 10 10 10 9 10 10 9 9 9 9 8 8 8 8 7 7 7 7 7 6 5 5 5 4 3 2 1 2 2 1 1
13 14 12 11 12 11 12 12 12 13 13 12 11 11 10 9 9 10 10 10 10 10 9 10 9 8 8 8 7 7 7 7 6 6 6 6 6 5 4 4 4 3 2 2 0 1 2 1 2
12 13 11 11 11 11 11 12 12 12 12 11 11 10 10 10 9 9 10 10 10 10 9 9 9 8 8 7 7 7 6 6 6 5 5 5 5 4 4 3 3 2 1 1 1 1 1 1 2
12 12 11 10 10 10 11 12 12 12 12 11 10 9 9 9 10 9 9 9 9 9 9 8 8 8 7 7 7 7 7 6 5 5 4 4 4 3 2 2 2 1 0 1 2 2 2 2 2
10 10 10 10 10 10 10 11 11 11 11 11 10 9 9 8 8 8 8 8 8 8 8 8 7 6 6 6 6 5 6 6 5 4 4 3 3 2 1 0 0 0 1 1 2 2 3 3 4
9 8 9 9 9 9 10 10 10 10 10 11 10 10 9 8 8 7 7 6 6 6 6 6 6 5 5 5 5 5 4 4 3 2 2 2 2 1 1 1 2 2 3 2 3 3 4 5 5
7 8 8 8 9 9 9 10 10 9 10 10 10 10 10 9 8 7 6 6 5 5 5 5 5 5 4 4 3 4 3 2 2 2 1 1 1 1 0 1 1 2 2 3 3 4 4 4 5
6 7 7 8 8 8 9 9 8 8 9 9 10 10 9 9 8 7 7 6 5 5 4 4 4 3 4 4 4 3 3 2 2 2 1 1 0 0 1 1 1 2 2 3 4 4 4 4 4
5 6 7 7 7 8 8 9 8 8 8 8 9 9 8 8 8 7 7 6 5 5 4 3 3 3 3 3 3 3 2 2 1 1 1 1 1 0 0 0 1 1 2 3 3 4 5 5 5
4 6 6 5 5 6 8 9 8 7 7 7 8 8 8 8 8 7 6 6 5 4 3 3 3 3 3 3 2 2 2 2 2 2 2 2 1 1 1 1 2 2 2 3 4 5 5 6 6
3 4 3 3 3 5 6 7 7 7 6 6 7 7 7 6 7 6 6 5 4 3 3 3 3 3 3 3 3 3 3 3 3 3 3 2 2 2 2 2 3 3 3 4 5 5 6 6 7
1 1 1 2 2 4 6 6 7 7 6 6 6 6 6 6 5 5 5 4 4 3 3 3 3 3 2 2 3 3 3 3 4 4 3 3 3 3 3 3 4 5 5 5 6 6 7 7 8
2 0 0 0 2 2 4 5 6 6 6 6 5 5 5 5 5 4 4 4 3 3 3 3 3 3 3 3 4 5 5 4 4 4 4 4 4 3 3 4 4 5 6 7 7 7 8 8 8
2 1 1 2 3 3 3 4 4 5 6 6 6 5 5 5 4 4 4 4 4 4 3 3 3 4 4 5 5 5 5 5 5 5 5 5 5 4 4 5 6 6 7 8 8 8 8 9 9
3 2 2 3 3 3 3 5 5 6 6 6 7 6 5 6 5 4 4 4 5 4 4 4 4 4 4 5 6 6 5 6 6 6 6 6 6 5 5 6 7 7 7 8 9 9 9 10 11
5 5 4 3 3 4 4 5 6 6 6 7 8 7 6 6 5 5 5 5 4 4 4 4 4 5 5 6 6 6 6 6 7 7 7 7 7 6 7 7 7 8 9 10 10 10 10 11 11
8 7 6 5 6 5 6 5 7 8 7 7 7 7 7 7 6 6 6 5 5 5 5 5 5 5 6 7 7 7 7 8 8 8 9 8 7 7 7 7 8 9 10 11 11 12 12 13 13
10 9 8 8 6 7 8 7 8 9 8 8 7 7 7 7 7 7 6 6 6 6 6 6 6 6 7 7 8 8 8 8 9 9 8 8 9 9 8 9 10 11 11 12 13 13 14 15 15
12 10 9 9 8 10 10 9 9 10 9 9 8 8 8 8 8 8 8 8 8 8 8 8 8 8 9 9 9 9 9 10 10 10 10 10 11 11 11 11 12 12 13 13 14 15 15 16 17
14 12 11 10 11 11 13 11 11 12 11 10 10 9 9 9 9 9 10 10 10 10 10 10 9 10 10 11 11 11 12 12 12 11 11 12 12 12 14 14 14 14 15 15 16 16 16 17 18
16 15 14 13 13 12 13 14 13 13 13 12 12 11 11 11 11 11 11 12 12 12 12 12 12 12 12 12 12 13 13 13 13 13 13 14 14 14 15 15 16 16 16 16 17 17 18 18 19
19 17 15 14 13 13 14 14 14 14 13 13 13 13 13 13 13 13 13 14 14 13 13 14 14 14 14 13 14 14 14 15 15 15 14 15 16 16 16 17 17 17 18 18 18 18 18 19 19
20 19 18 16 16 14 14 15 16 16 15 15 15 16 16 15 15 15 15 16 15 15 15 15 14 15 15 15 15 16 16 17 17 17 16 17 18 18 18 18 19 19 19 19 19 20 19 20 21
22 21 19 18 19 18 17 17 18 18 17 17 17 17 17 17 17 17 16 16 16 16 16 16 16 17 17 17 17 18 19 19 19 19 19 19 19 20 20 20 20 20 20 20 21 22 22 22 22